Skip Page Navigation
NASA JPL Caltech
NASA Logo - Jet Propulsion Laboratory + View the NASA Portal
+ Near-Earth Object (NEO) Program
Search JPL
JPL Home Earth Solar System Stars & Galaxies Technology
JPL Solar System Dynamics
BODIES ORBITS EPHEMERIDES TOOLS PHYSICAL DATA DISCOVERY FAQ SITE MAP
JPL Small-Body Database Browser
Search: [ help ]  
152560 (1991 BN)
Classification: Apollo [NEO, PHA]          SPK-ID: 2152560
Ephemeris | Orbit Diagram | Orbital Elements | Physical Parameters | Discovery Circumstances | Close-Approach Data ]

[ hide orbit diagram ]
Orbit Diagram
Note: Make sure you have Java enabled on your browser to see the applet. This applet is provided as a 3D orbit visualization tool. The applet was implemented using 2-body methods, and hence should not be used for determining accurate long-term trajectories (over several years or decades) or planetary encounter circumstances. For accurate long-term ephemerides, please instead use our Horizons system.
Orbit Viewer

Additional Notes: the orbits shown in the applet are color coded. The planets are white lines, and the asteroid/comet is a blue line. The bright white line indicates the portion of the orbit that is above the ecliptic plane, and the darker portion is below the ecliptic plane. Likewise for the asteroid/comet orbit, the light blue indicates the portion above the ecliptic plane, and the dark blue the portion below the ecliptic plane.

Orbit Viewer applet originally written and kindly provided by Osamu Ajiki (AstroArts), and further modified by Ron Baalke (JPL).


Orbital Elements at Epoch 2456400.5 (2013-Apr-18.0) TDB
Reference: JPL 61 (heliocentric ecliptic J2000)
 Element Value Uncertainty (1-sigma)   Units 
e .3979468023070462 3.5755e-08  
a 1.443729379469869 6.1439e-09 AU
q .8692018895130984 5.3896e-08 AU
i 3.445795617634423 6.3e-06 deg
node 268.9520666732647 6.8274e-05 deg
peri 80.79220471506699 6.9035e-05 deg
M 29.64905656477171 1.7172e-05 deg
tp 2456348.316224608722
(2013-Feb-24.81622461)
2.9894e-05 JED
period 633.6174339921932
1.73
4.0446e-06
1.107e-08
d
yr
n .5681661846514715 3.6268e-09 deg/d
Q 2.018256869426639 8.5889e-09 AU
  Orbit Determination Parameters
   # obs. used (total)      317  
   # delay obs. used      1  
   # Doppler obs. used      2  
   data-arc span      7707 days (21.10 yr)  
   first obs. used      1991-01-19  
   last obs. used      2012-02-25  
   planetary ephem.      DE405  
   SB-pert. ephem.      SB405-CPV-2  
   condition code      0  
   fit RMS      .58087  
   data source      ORB  
   producer      Otto Matic  
   solution date      2013-Apr-29 15:39:11  

Additional Information
 Earth MOID = .0207427 AU 
 T_jup = 4.569 
[ show covariance matrix ]

Ephemeris | Orbit Diagram | Orbital Elements | Physical Parameters | Discovery Circumstances | Close-Approach Data ]

Physical Parameter Table
Parameter Symbol Value Units Sigma Reference Notes
absolute magnitude H 18.943 mag .61648 61 autocmod 2.5c
SMASSII spectral type spec_B Q   n/a Binzel et al. (2004) Icarus 170, 259-294  

152560 (1991 BN)          Discovered 1991-Jan-19 by Spacewatch at Kitt Peak (691)
Reference: 20070402/Numbers.arcLast Updated: 2007-04-04

[ show close-approach data ]
Alternate Designations
 1991 BN = 2002 VS94 
Ephemeris | Orbit Diagram | Orbital Elements | Physical Parameters | Discovery Circumstances | Close-Approach Data ]
ABOUT SSD CREDITS/AWARDS PRIVACY/COPYRIGHT GLOSSARY LINKS
FirstGov 2013-May-18 21:38 UT
(server date/time)  
NASA Home Page
Site Manager:   Donald K. Yeomans
Webmaster  Alan B. Chamberlin